Regional Weather Roundup
Issued by NWS

Home | Current Version | Previous Version | Text Only | Print | Product List | Glossary Off
Versions: 1 2 3 4 5 6 7 8 9 10 11 12 13 14 15 16 17 18 19 20 21 22 23 24 25 26 27 28 29 30 31 32 33 34 35 36 37 38 39 40 41 42 43 44 45 46 47 48 49 50

000
ASUS43 KTOP 221708
RWRKS

WEATHER ROUNDUP FOR KANSAS
NATIONAL WEATHER SERVICE GOODLAND KS
1100 AM CST THU FEB 22 2018

NOTE:  "FAIR" INDICATES FEW OR NO CLOUDS BELOW 12,000 FEET WITH NO
SIGNIFICANT WEATHER AND/OR OBSTRUCTIONS TO VISIBILITY.

KSZ001>006-013>018-027>032-041>047-221800-
NORTHWEST KANSAS

CITY           SKY/WX    TMP DP  RH WIND       PRES   REMARKS
GOODLAND       CLOUDY    20  12  71 SE7       30.10F
HAYS           CLOUDY    25  23  92 E5        30.26F
HILL CITY      CLOUDY    23  21  92 E3        30.23F
RUSSELL        CLOUDY    28  25  88 E10       30.24F WCI  19
$$

KSZ061>065-074>080-084>089-221800-
SOUTHWEST KANSAS

CITY           SKY/WX    TMP DP  RH WIND       PRES   REMARKS
DODGE CITY     CLOUDY    24  21  88 E7        30.20F
ELKHART        SUNNY     34  20  57 S9G16     30.10F
GARDEN CITY    CLOUDY    22  18  85 SE12      30.17R WCI  10
GREAT BEND     CLOUDY    27  25  92 E10       30.26S WCI  17
LIBERAL        CLOUDY    24  19  81 SE6       30.18F
PRATT          CLOUDY    27  24  91 E6        30.24S
$$

KSZ066>073-081>083-090>101-221800-
SOUTHEAST KANSAS

CITY           SKY/WX    TMP DP  RH WIND       PRES   REMARKS
CHANUTE        CLOUDY    32  32 100 NE6       30.32F FOG
COFFEYVILLE    CLOUDY    35  35 100 NE10      30.29F FOG     WCI  27
HUTCHINSON     CLOUDY    28  27  96 E8        30.28F
MEDICINE LODGE   N/A     28  27  96 E6        30.27R
NEWTON         CLOUDY    28  27  96 CALM      30.33
PARSONS        CLOUDY    34  33  96 NE8       30.29F
WICHITA INTL   FRZ RAIN  29  29 100 CALM      30.34R FOG
WICHITA JABRA  CLOUDY    29  29 100 SW3       30.35R
WICHITA MCCONL CLOUDY    30  28  93 CALM      30.35
WINFIELD       CLOUDY    31  30  96 CALM      30.36R
$$

KSZ007>012-019>026-033>040-048>060-102>105-221800-
NORTHEAST KANSAS

CITY           SKY/WX    TMP DP  RH WIND       PRES   REMARKS
CONCORDIA      CLOUDY    26  25  96 E5        30.30F
EMPORIA        CLOUDY    30  28  92 E8        30.31F FOG
LAWRENCE       CLOUDY    30  29  96 NE7       30.35F FOG
MANHATTAN      CLOUDY    30  27  88 E8        30.34F
MARYSVILLE     CLOUDY    28  28 100 E6        30.32F FOG
OLATHE IND     CLOUDY    30  29  96 E7        30.34F FOG
OLATHE EXE     CLOUDY    29  29 100 E8        30.35F FOG
SALINA         CLOUDY    30  28  92 SE6       30.32F
TOPEKA BILLARD FRZ RAIN  30  29  96 E5        30.36F FOG
TOPEKA FORBES  CLOUDY    30  29  96 E6        30.34F FOG
$$




USA.gov is the U.S. government's official web portal to all federal, state and local government web resources and services.